Location: Ammerl�gen
(47.2167°N, 9.6000°E)
Time: 06:44:57
(UTC+00:00)

Cosmos 1743 Rocket - Pass Details

Date: 21 April 2021
Orbit: 603 x 633 km, 82.6° (Epoch: 15 May)

Event Time Altitude Azimuth Distance (km) Brightness Sun altitude
Rises 21:29:54 0° 350° (N) 2,878 8.1 -25.7°
Reaches altitude 10° 21:32:08 10° 350° (N) 1,966 7.0 -25.9°
Enters shadow 21:35:48 63° 348° (NNW) 679 3.9 -26.2°
